Regional Weather Roundup
Issued by NWS

Home | Current Version | Previous Version | Graphics & Text | Print | Product List | Glossary Off
Versions: 1 2 3 4 5 6 7 8 9 10 11 12 13 14 15 16 17 18 19 20 21 22 23 24 25 26 27 28 29 30 31 32 33 34 35 36 37 38 39 40 41 42 43 44 45 46 47 48 49 50

000
ASUS43 KLSX 261659
RWRMO

WEATHER SUMMARY FOR MISSOURI
NATIONAL WEATHER SERVICE SPRINGFIELD MO
1200 PM CDT MON JUN 26 2017

NOTE: "FAIR" INDICATES FEW OR NO CLOUDS BELOW 12,000 FEET WITH NO
       SIGNIFICANT WEATHER AND/OR OBSTRUCTIONS TO VISIBILITY.
       CURRENT SKY AND/OR WEATHER CONDITIONS ARE NOT AVAILABLE FOR
       CHILLICOTHE AND FARMINGTON.

MOZ001>031-035>038-043-044-053-054-261800-
...NORTHERN AND WESTERN MISSOURI...

CITY           SKY/WX    TMP DP  RH WIND       PRES   REMARKS
KANSAS CTY INT RAIN      59  56  89 NE12      30.24F
KANSAS C DTWN  LGT RAIN  61  56  83 NE9       30.23F
LEE`S SUMMIT   CLOUDY    61  57  87 NE15G22   30.26R
ST JOSEPH      CLOUDY    60  58  92 E5        30.24S
CHILLICOTHE      N/A     58  55  90 VRB3G17   30.21F
KIRKSVILLE     CLOUDY    61  55  81 S6        30.24F

$$
MOZ066>068-077>081-088>096-101>105-261800-
...SOUTHWEST MISSOURI...

CITY           SKY/WX    TMP DP  RH WIND       PRES   REMARKS
SPRINGFIELD    CLOUDY    71  60  68 S8        30.21S
JOPLIN         CLOUDY    78  64  61 SW9       30.19F
BRANSON        PTSUNNY   77  57  50 S8        30.23F

$$
MOZ032>034-039>042-045>050-055>058-069>072-261800-
...CENTRAL MISSOURI...

CITY           SKY/WX    TMP DP  RH WIND       PRES   REMARKS
COLUMBIA       SUNNY     76  48  37 MISG      30.23S
JEFFERSON CITY SUNNY     76  48  37 VRB5      30.21F
ROLLA          SUNNY     76  48  37 CALM      30.20F
SEDALIA        LGT RAIN  67  53  61 N9G18     30.25R
WARRENSBURG    CLOUDY    61  55  82 CALM      30.25F
OSAGE BEACH    PTSUNNY   77  52  41 W5        30.21F

$$
MOZ051-052-059>065-261800-
...EAST CENTRAL MISSOURI...

CITY           SKY/WX    TMP DP  RH WIND       PRES   REMARKS
ST LOUIS INTL  MOSUNNY   80  45  28 N7        30.21R
SPIRIT OF STL  MOSUNNY   78  49  35 VRB7      30.21R
ST CHARLES     SUNNY     77  45  32 W10       30.20R

$$
MOZ072>076-082>087-097>100-106>115-261800-
...SOUTH CENTRAL AND SOUTHEAST MISSOURI...

CITY           SKY/WX    TMP DP  RH WIND       PRES   REMARKS
CAPE GIRARDEAU CLOUDY    75  51  43 CALM      30.21F
FARMINGTON     SUNNY     75  47  36 VRB6      30.21F
POPLAR BLUFF   PTSUNNY   74  56  53 VRB3      30.20F
WEST PLAINS    MOSUNNY   74  59  59 VRB3      30.22F

$$



USA.gov is the U.S. government's official web portal to all federal, state and local government web resources and services.